Theta_e
355 356 360 357 364 363 365 361 367 365 366 359 361 358 358 357 360 356 359 356 349 352 360 351 362 363 356 351 354 358 358 368 359 364 360 358 361 367 370 369 368 368 366 366 367 365 365 364 362 361 359 358 358 358 358 359 359 357 356 356 356 357 357 359 361 361 362 362 362 362 362 362 362 362 362 363 363 363 363 362 362 361 361 361 361
349 359 355 355 365 366 364 363 361 368 359 357 361 364 360 363 364 356 353 354 353 353 355 352 353 357 355 353 353 357 368 357 358 362 359 360 359 366 372 370 369 369 367 367 366 366 365 364 362 361 359 358 358 357 358 358 359 359 358 357 356 357 358 359 360 361 361 361 362 362 362 362 362 362 363 363 363 362 362 362 362 362 361 361 361
346 352 353 355 357 355 354 358 359 358 361 356 365 358 362 360 353 355 361 360 356 352 356 366 352 352 354 354 356 364 360 360 355 358 359 365 360 362 368 372 371 368 370 367 368 367 365 364 364 361 361 360 359 358 358 358 357 359 361 360 359 358 357 358 359 360 360 360 361 362 362 362 362 363 363 363 362 362 362 362 362 362 362 362 361
352 349 350 360 356 350 350 359 356 354 365 359 360 369 370 366 355 356 362 362 357 355 354 349 348 348 352 351 352 352 356 354 361 359 359 370 363 361 364 366 371 371 370 370 368 368 366 366 364 363 362 362 361 360 359 359 359 359 361 361 362 361 360 359 359 360 359 360 360 361 361 361 362 362 362 363 362 363 363 363 363 362 361 361 362
360 359 359 355 350 348 346 349 355 363 354 356 356 368 363 359 360 360 364 361 355 351 347 346 346 351 350 351 359 353 353 359 359 360 353 359 363 364 363 365 366 372 372 371 370 368 368 366 366 365 364 363 362 362 361 360 360 360 360 362 362 362 362 361 360 360 360 360 361 360 361 361 361 362 362 362 362 362 362 362 362 362 362 362 362
364 358 358 351 353 353 349 347 352 360 365 365 362 363 362 362 357 357 358 363 351 350 347 345 344 348 350 349 353 355 353 356 361 354 354 355 361 365 365 364 366 367 368 372 371 370 369 368 368 366 366 365 364 363 363 362 361 361 361 361 362 361 361 362 362 361 361 361 361 360 360 362 362 362 361 362 362 362 362 362 362 362 362 362 362
369 363 355 353 347 346 347 349 352 354 354 367 362 361 365 362 360 354 354 360 350 351 348 346 344 344 348 351 351 351 353 352 352 352 351 354 356 359 364 367 366 366 365 367 372 371 371 370 369 368 368 367 366 365 364 364 363 363 362 361 361 362 361 361 362 362 362 362 362 361 362 362 362 362 362 362 362 362 362 362 362 362 362 362 361
368 369 359 355 348 347 345 348 354 358 362 368 369 366 362 354 355 353 353 348 354 350 355 349 347 341 343 354 355 354 352 351 351 351 353 359 354 356 362 366 369 368 371 367 369 370 373 371 371 370 369 368 367 367 366 365 365 365 364 363 363 362 363 362 362 362 362 362 361 361 362 361 361 361 361 361 361 361 361 361 361 361 361 361 361
372 372 368 361 356 350 344 345 352 355 355 358 358 359 358 356 368 361 358 364 350 347 347 350 346 345 343 343 347 352 351 354 351 352 351 352 361 361 358 361 361 371 371 371 371 370 374 373 372 371 370 370 369 368 368 368 367 366 366 365 364 364 364 364 363 362 362 362 361 361 361 361 361 361 361 361 361 361 361 361 361 361 361 361 361
373 371 369 363 362 358 349 345 350 352 359 360 364 359 358 356 357 364 362 360 359 350 348 347 345 343 344 343 346 349 350 351 350 356 351 351 356 356 356 357 356 355 359 364 371 373 372 374 374 373 373 372 371 370 369 369 369 369 368 367 366 366 365 364 364 364 363 363 363 362 362 362 361 360 360 361 361 361 361 361 361 361 361 360 360
373 372 369 364 362 362 357 354 355 361 361 361 359 360 363 360 355 357 365 361 362 355 352 352 349 347 345 344 345 363 365 349 362 363 351 349 351 356 354 356 366 362 367 360 362 374 373 373 373 372 371 374 373 372 371 370 370 370 370 369 368 368 367 367 366 365 365 364 364 364 363 363 363 362 362 361 361 361 361 361 360 360 360 360 360
370 371 369 365 362 361 357 353 356 356 360 354 352 357 356 357 355 353 359 358 360 357 354 352 348 344 343 343 342 344 346 353 349 344 345 344 350 352 350 356 356 358 355 356 358 359 371 375 374 372 371 373 375 374 373 372 371 371 371 371 370 369 369 369 368 367 366 366 366 365 364 364 364 364 363 363 363 363 363 361 361 361 361 361 360
365 367 368 368 365 363 360 356 353 356 354 353 352 353 361 359 362 371 356 357 353 352 352 351 348 347 352 347 348 350 345 345 342 342 346 349 353 349 349 353 355 354 354 358 359 360 361 370 374 373 372 373 375 376 375 374 373 372 372 372 372 372 371 370 370 370 368 368 368 367 366 366 365 365 365 364 364 364 364 363 362 362 362 362 362
366 370 369 368 364 362 359 356 357 357 358 362 359 366 366 359 356 357 357 352 352 352 350 348 346 343 343 343 345 343 343 340 341 342 342 344 343 350 356 352 350 353 354 358 356 357 356 362 368 370 372 372 377 374 373 374 373 374 373 372 372 372 372 372 372 371 370 370 369 369 368 367 367 366 365 366 366 365 365 364 363 363 364 363 363
364 367 366 364 363 362 360 355 357 358 363 363 363 364 365 359 362 353 351 353 351 353 353 352 343 346 350 346 339 341 356 350 344 341 340 340 341 341 345 347 348 349 350 355 354 357 356 359 364 365 371 370 372 376 376 374 373 375 374 374 373 373 373 373 373 372 372 371 370 370 369 368 368 368 367 367 366 366 365 365 364 364 364 364 363
362 361 362 361 363 362 359 357 357 360 360 364 361 357 362 360 354 353 354 348 348 347 351 353 349 345 339 338 343 338 336 338 339 341 341 340 339 340 343 343 344 346 352 348 354 355 357 360 360 368 371 371 370 371 374 374 375 375 375 375 374 372 373 374 374 373 373 372 372 371 370 369 369 369 368 368 368 366 365 365 365 365 364 364 364
363 362 361 363 363 363 361 359 356 359 354 354 359 356 357 355 356 356 355 350 348 349 351 350 349 353 350 350 341 337 341 339 336 346 340 338 338 338 339 342 343 344 345 345 350 352 353 359 360 361 369 373 377 378 376 375 375 380 377 375 374 373 370 372 374 374 374 372 372 372 372 371 370 370 369 369 368 367 366 365 364 364 364 364 363
364 364 361 361 360 362 362 359 356 355 356 352 354 356 358 355 354 356 352 354 353 352 348 352 349 354 354 349 348 346 346 342 338 345 349 343 341 340 352 345 355 344 344 343 346 347 351 355 359 359 369 373 373 373 371 373 377 373 376 378 377 375 372 372 373 374 374 373 373 372 372 372 370 369 369 369 369 368 366 366 365 365 364 364 363
361 363 364 363 361 361 362 361 357 355 355 356 355 354 354 353 354 356 354 355 359 354 350 348 349 348 346 347 347 346 342 339 340 339 339 349 343 341 339 344 340 341 341 342 352 349 348 351 360 364 370 369 372 373 371 366 367 366 369 372 376 378 375 373 373 374 374 373 372 372 372 372 371 371 371 370 369 368 368 367 366 365 365 364 362
358 360 363 362 361 359 360 361 357 355 352 351 351 355 356 353 356 356 356 361 359 353 352 350 347 347 347 346 346 346 346 345 342 335 336 340 345 344 342 340 340 343 343 344 345 348 348 351 353 366 367 365 360 362 363 363 366 362 368 371 373 370 372 370 370 370 370 369 370 369 370 370 370 370 369 369 368 367 366 365 365 365 363 362 362
366 366 366 364 362 359 358 359 357 357 356 352 351 354 357 357 360 368 361 359 356 355 357 356 351 346 347 350 345 345 346 346 345 344 341 336 335 338 342 341 342 341 355 348 346 344 349 351 358 355 359 359 360 362 366 365 368 364 371 371 369 368 369 368 368 368 369 369 369 369 369 370 369 368 367 367 366 366 367 367 365 364 363 363 363
369 364 361 362 362 362 358 354 356 354 357 353 351 354 359 358 360 357 358 358 357 356 356 355 353 351 348 348 353 353 348 344 344 344 342 342 337 336 337 337 341 347 344 345 350 344 349 349 352 354 358 364 363 363 366 367 369 365 368 369 368 367 365 365 366 366 366 367 368 368 367 366 365 366 367 367 367 366 366 366 365 364 363 363 361
368 365 360 360 360 361 357 354 354 357 359 356 354 352 354 357 356 358 361 361 358 357 355 356 355 355 350 348 350 346 349 346 347 345 341 341 340 338 339 339 337 338 352 347 347 350 351 353 351 353 358 362 365 369 367 365 367 368 367 368 365 364 363 360 360 361 363 364 364 364 364 363 363 362 362 362 363 364 364 364 363 363 362 361 361
362 360 363 360 360 360 360 357 356 355 355 356 354 353 354 356 356 358 358 359 361 360 357 354 352 353 352 349 348 346 347 347 346 347 346 346 341 342 340 346 341 340 341 351 352 352 353 355 358 359 361 361 364 364 366 369 370 368 364 367 366 362 360 362 362 362 362 363 363 363 362 362 361 361 361 361 361 361 362 362 362 361 360 360 360
359 357 357 358 358 360 359 357 355 354 355 355 356 358 357 355 355 356 356 359 359 359 357 355 353 350 349 350 349 348 348 348 348 346 345 346 347 347 343 346 342 346 344 345 350 355 357 360 360 360 361 360 360 363 362 362 367 366 368 365 364 361 359 359 361 361 361 362 362 361 360 360 360 360 360 360 360 361 361 360 360 360 359 359 358
357 358 359 358 359 360 362 365 365 364 365 364 360 360 360 358 356 356 355 358 360 361 360 357 356 354 352 349 350 350 350 350 349 347 345 343 347 342 353 347 343 342 348 348 346 349 355 357 361 363 364 361 361 363 364 367 363 365 365 362 361 360 360 359 359 359 360 360 360 360 359 359 360 360 359 360 360 360 360 360 358 358 357 357 357
357 360 361 359 358 362 367 363 362 361 360 360 359 359 364 363 359 359 358 358 361 358 357 356 355 353 352 352 352 351 351 352 351 350 347 347 346 348 355 351 344 343 345 346 355 351 352 356 360 358 365 365 363 365 363 362 366 367 367 363 359 359 360 358 358 357 357 357 357 356 356 356 356 356 358 359 359 360 359 359 358 357 357 357 357
362 362 362 360 358 365 366 361 361 360 361 360 360 358 360 360 361 359 359 357 358 358 358 356 355 354 352 353 352 351 353 352 352 351 352 351 349 354 353 348 346 343 345 344 349 350 350 356 362 364 364 367 368 368 365 360 360 363 364 364 365 356 357 357 357 356 354 355 354 354 354 355 356 356 357 357 358 359 358 357 358 357 356 357 357
359 361 359 360 359 361 360 358 359 360 358 359 358 359 362 362 360 363 359 357 359 360 358 356 356 355 353 352 352 353 355 358 355 353 362 359 352 360 356 351 352 347 346 348 348 344 350 354 357 361 366 367 371 366 361 366 364 361 363 360 362 361 355 354 356 354 353 351 351 352 353 354 354 355 356 356 356 356 356 357 357 357 356 356 356
360 359 359 360 360 363 361 361 359 359 358 358 358 359 361 361 360 364 362 362 360 359 357 356 355 356 354 353 353 352 354 357 356 354 366 365 354 351 356 356 359 351 350 344 348 351 351 354 358 359 368 366 360 359 359 364 364 358 358 356 360 359 353 352 355 352 350 350 349 350 351 351 351 352 352 353 353 355 355 355 356 356 356 354 352
361 361 361 358 361 363 363 361 361 360 358 357 360 361 362 361 360 359 361 364 362 360 360 357 355 354 355 353 352 352 353 356 355 352 354 354 358 357 365 364 362 358 353 351 345 353 351 352 355 357 361 362 357 359 357 361 361 359 360 359 359 358 353 355 355 351 349 348 348 348 349 349 350 352 353 353 354 353 353 354 354 353 351 351 349
359 360 360 357 358 359 359 360 358 357 356 357 358 360 362 361 360 357 358 364 362 361 360 357 354 355 356 354 354 356 356 360 355 354 355 353 354 360 362 364 362 360 359 354 347 347 354 353 353 356 355 357 361 358 360 361 360 357 363 366 360 356 355 359 354 351 349 348 346 346 345 348 352 354 354 353 353 352 351 350 349 349 348 347 345
359 360 358 357 359 358 358 359 358 357 358 356 356 360 362 363 362 360 360 362 362 359 361 360 358 355 358 357 358 360 363 354 355 355 355 358 360 363 364 362 359 358 358 353 349 348 352 356 353 353 356 355 355 357 356 359 361 363 359 362 364 359 359 357 350 347 349 348 345 344 343 346 350 351 352 351 350 349 348 346 345 344 344 341 340
359 357 358 357 356 357 356 357 358 357 360 361 360 359 362 362 361 359 359 361 363 362 362 362 363 361 360 363 360 356 364 359 356 353 351 355 358 360 363 360 356 356 357 353 350 348 346 356 354 355 355 356 353 355 355 353 358 358 359 360 359 357 355 357 349 348 347 346 344 342 342 342 345 346 347 347 346 345 343 341 340 338 337 335 334
360 359 357 357 357 357 357 358 359 358 359 359 360 360 361 361 361 359 357 358 361 363 363 364 364 364 361 363 364 363 359 356 359 361 356 354 359 360 357 358 357 356 358 358 354 350 349 349 352 351 353 354 354 351 356 354 357 356 355 356 355 354 356 356 351 347 343 345 343 342 341 341 340 340 340 339 339 338 336 334 331 330 330 330 330
357 357 357 357 355 355 355 356 357 358 358 358 360 360 362 363 362 361 361 360 359 361 363 363 363 364 363 361 361 367 366 363 362 363 364 360 358 358 356 358 358 357 358 357 356 355 351 346 350 349 350 352 355 354 355 353 348 350 353 354 352 355 355 351 348 346 344 344 342 340 340 339 337 336 335 334 333 332 330 327 327 327 327 328 328
360 361 364 360 353 355 356 356 357 357 357 359 360 360 359 363 363 362 363 363 361 367 364 364 363 365 365 363 365 363 363 363 362 361 363 361 360 359 357 359 358 356 356 356 355 353 348 345 348 350 352 353 354 354 354 350 351 352 350 353 351 354 350 345 350 349 344 344 341 339 339 338 336 334 332 331 330 329 327 327 326 325 325 325 325
364 360 359 357 356 354 355 357 356 357 359 360 361 361 359 359 360 363 364 365 363 358 359 359 361 364 364 363 363 358 359 359 361 361 360 361 362 360 359 358 357 354 352 352 353 350 348 349 346 346 350 350 349 352 356 351 348 352 353 358 353 352 352 346 346 345 344 342 340 339 337 336 334 333 332 331 330 329 328 327 326 325 324 323 322
361 364 361 358 358 356 357 360 359 358 359 361 361 362 362 361 364 364 369 367 360 358 359 361 359 359 362 365 369 364 364 363 364 362 362 364 363 362 361 358 356 354 351 350 351 350 349 347 345 346 346 348 349 346 350 354 351 347 346 351 345 350 353 353 351 348 349 345 342 342 340 338 335 333 328 329 329 328 328 328 327 326 324 322 321
361 362 361 357 360 361 359 358 359 362 362 359 360 360 362 364 366 367 365 361 361 358 357 358 357 356 358 361 365 368 368 366 364 364 364 362 361 360 360 357 355 353 350 349 348 346 345 342 342 342 341 345 346 349 351 351 346 348 349 347 343 343 348 356 350 348 349 352 346 342 344 340 336 332 331 330 331 330 329 328 327 326 324 322 321
360 358 356 355 354 355 356 359 356 356 357 359 362 364 364 365 368 365 362 361 360 357 359 361 360 358 357 359 362 366 368 369 369 368 367 365 360 358 358 356 354 351 350 349 347 346 344 343 341 344 344 345 346 345 342 344 342 342 347 349 347 345 346 350 349 348 349 349 348 344 341 339 334 332 332 329 329 329 326 327 327 326 324 323 323
357 355 354 353 352 351 351 352 353 355 356 356 360 365 366 366 369 365 362 361 360 358 359 359 358 355 355 360 364 366 365 368 367 366 365 365 365 361 357 355 354 351 350 349 345 344 344 343 343 342 341 343 342 342 342 344 344 346 343 342 341 348 344 344 344 345 344 342 341 344 345 343 339 338 339 333 333 332 327 327 322 322 323 323 322
358 355 354 353 353 354 353 350 351 353 355 358 360 349 351 360 369 364 360 360 360 361 361 358 355 354 355 357 355 354 358 365 364 364 363 363 363 362 361 360 359 354 350 348 347 345 344 344 346 345 343 341 342 343 343 347 346 345 344 347 345 345 339 337 335 343 344 342 343 341 342 346 348 343 341 339 335 326 321 320 326 324 323 322 322
359 357 355 354 354 353 353 352 351 353 354 359 347 344 347 349 362 364 362 360 358 358 362 360 357 355 354 353 356 358 360 362 362 361 361 362 360 359 359 357 356 356 356 352 349 346 346 345 346 345 343 341 341 343 342 343 343 344 345 343 344 340 339 338 337 336 341 345 339 339 337 342 344 344 341 341 334 326 322 323 324 323 323 323 323
358 354 350 353 354 355 354 352 351 353 355 354 343 341 343 344 350 363 362 361 361 361 361 361 357 354 352 350 353 359 360 364 361 359 358 357 357 354 353 352 350 348 343 346 349 352 355 349 347 345 346 343 341 343 344 341 341 344 345 340 340 341 341 339 341 337 339 345 340 333 330 331 334 333 337 331 325 321 320 324 323 323 323 322 321
356 354 352 351 353 354 354 353 352 353 355 356 339 338 338 340 344 355 362 360 359 359 359 359 357 352 351 349 353 357 358 359 358 357 355 353 349 348 347 346 346 347 347 347 347 350 353 350 345 341 345 346 342 343 345 346 343 343 342 339 340 340 340 339 341 344 337 338 331 332 330 329 328 329 328 331 324 321 321 321 322 322 323 322 321
353 351 351 352 352 354 354 354 354 355 356 347 335 335 335 337 340 353 361 360 358 357 357 357 358 353 350 350 354 356 355 356 356 355 352 350 348 347 346 345 340 336 335 337 341 346 349 347 344 341 338 339 337 337 338 342 341 340 339 338 340 340 340 341 343 334 327 330 329 329 324 324 325 325 322 324 327 324 321 319 320 323 323 322 321
353 353 353 353 354 353 355 356 355 354 355 340 333 333 332 334 338 355 361 358 358 356 355 355 355 355 353 352 353 352 355 355 354 350 351 350 346 346 341 334 332 329 327 329 328 334 337 335 332 330 329 331 332 333 335 336 336 336 338 341 344 340 336 334 332 329 324 325 324 323 322 322 327 323 322 324 327 325 320 320 321 323 323 323 321
351 352 350 350 353 351 352 354 354 354 356 342 330 329 329 330 339 352 356 356 356 353 354 354 353 353 353 354 352 351 352 352 347 340 344 349 346 341 335 333 330 327 324 325 325 324 324 323 323 325 325 326 326 325 325 329 334 336 338 335 335 336 334 332 331 326 319 319 317 319 322 326 323 324 323 324 322 322 325 322 321 322 322 323 322
347 349 351 350 350 350 351 352 352 352 354 345 325 326 326 327 342 352 354 353 352 351 351 351 351 351 351 355 354 351 349 349 342 336 341 349 343 339 335 331 328 326 325 324 323 325 325 325 325 326 326 327 329 329 329 329 331 333 331 326 326 332 334 332 329 319 319 316 316 317 323 317 322 323 321 320 322 324 324 325 324 322 320 319 320
347 350 352 352 350 351 352 352 350 351 353 348 325 323 323 324 339 353 349 346 347 346 344 342 346 346 346 351 349 348 347 345 331 333 338 349 340 338 336 333 329 327 326 326 323 324 324 325 325 328 331 328 329 327 328 328 329 330 328 326 326 326 326 326 325 322 316 314 315 320 320 317 317 320 317 315 313 319 323 321 325 325 322 323 322
Wind_Speed
3 3 3 4 1 1 3 2 2 2 3 2 2 3 5 3 2 4 3 3 3 7 4 5 2 3 2 1 1 2 1 1 3 2 6 6 6 10 15 14 13 12 12 11 10 9 10 9 8 9 8 8 7 7 8 9 9 8 8 7 8 8 8 8 8 7 8 8 8 9 9 9 9 9 10 10 11 11 11 12 12 12 12 12 12
4 2 2 1 1 2 2 2 3 1 2 4 3 2 2 3 2 4 4 4 4 2 3 6 4 3 4 3 2 2 3 2 3 2 3 6 6 7 16 16 14 13 12 12 11 11 10 9 9 9 9 8 7 7 8 8 8 7 6 6 6 7 8 8 9 9 9 9 9 9 9 8 9 9 9 10 10 11 11 11 11 11 11 11 12
4 3 3 3 4 5 5 4 3 3 2 4 2 4 2 3 5 3 3 3 3 4 3 1 4 5 5 4 1 1 4 1 4 2 3 3 6 6 10 16 16 14 13 13 12 12 11 10 10 10 9 9 8 8 8 8 6 7 7 7 7 7 8 8 9 9 9 9 10 10 9 9 9 9 9 9 9 9 10 10 10 10 10 10 11
5 4 3 2 3 3 3 2 4 5 3 2 3 2 2 2 5 5 3 3 4 3 4 3 5 5 7 8 6 5 3 3 3 4 3 2 6 6 6 9 15 15 15 14 13 13 12 12 11 11 10 10 10 10 10 9 8 8 8 8 9 8 9 9 10 9 9 9 10 10 10 10 10 10 9 9 9 9 9 9 9 9 10 10 10
5 4 4 3 4 4 4 5 3 3 3 4 5 3 3 3 4 4 3 3 4 5 6 6 7 4 5 6 5 3 7 4 2 2 3 2 5 6 7 7 9 14 16 15 15 14 14 13 13 12 12 11 11 11 11 11 11 10 9 9 10 10 9 10 9 9 10 10 9 9 10 10 10 10 10 10 10 9 9 9 10 10 10 10 10
5 4 3 4 5 5 5 4 4 3 1 1 2 3 3 2 3 4 3 2 4 4 4 6 5 4 7 5 6 4 3 5 4 5 7 8 4 8 7 7 7 7 8 14 15 15 15 14 14 13 13 13 12 12 12 12 12 11 11 11 10 10 10 10 10 10 10 10 10 10 10 11 11 11 10 10 10 10 11 11 11 11 11 11 10
5 5 5 4 6 5 4 5 5 5 3 4 5 4 3 3 3 4 4 2 4 4 7 5 4 4 4 7 7 6 5 6 6 6 7 6 4 4 8 8 8 8 8 7 12 15 15 15 15 14 14 14 13 13 13 13 13 13 12 12 11 11 11 11 11 11 11 11 11 11 11 11 11 11 11 11 12 12 12 12 12 12 11 11 11
5 4 6 5 6 6 6 5 5 4 2 2 3 3 3 5 5 4 3 5 3 4 3 5 4 5 5 4 5 7 5 6 8 4 5 4 5 5 2 7 8 8 9 8 7 11 17 16 16 16 15 15 14 14 14 14 14 15 14 13 13 13 12 12 12 11 11 12 11 12 12 12 11 12 12 13 13 13 13 13 12 12 12 11 11
5 5 5 7 7 7 6 7 5 4 4 4 4 5 4 6 1 4 5 2 5 7 5 4 6 6 6 5 5 5 4 5 5 4 6 6 4 5 4 2 7 10 8 8 8 8 15 18 17 17 16 16 15 15 15 15 16 16 15 15 14 14 14 14 13 12 12 12 12 12 12 12 12 13 13 13 13 13 13 13 12 12 12 12 12
4 5 5 8 7 7 7 7 5 4 4 3 3 3 4 4 4 3 3 3 3 5 6 6 7 7 5 6 5 8 7 5 7 10 8 8 7 4 4 4 4 6 8 8 9 8 8 14 18 17 17 16 16 16 16 16 16 17 16 16 16 15 15 15 14 14 13 13 13 13 13 12 13 13 13 13 13 13 13 13 13 12 12 12 12
4 5 6 6 7 8 8 6 6 3 3 3 4 4 3 2 5 4 2 3 3 4 6 6 7 7 6 6 5 2 2 3 2 2 3 7 9 8 7 7 3 1 2 4 5 8 8 8 9 8 10 18 16 17 16 17 16 16 16 16 16 15 15 15 15 14 14 13 13 13 13 13 14 14 14 13 13 13 13 13 13 13 12 12 12
6 5 5 6 7 7 8 8 5 4 2 3 4 4 5 3 6 7 4 4 4 5 6 6 6 7 6 6 6 5 4 2 5 6 6 7 5 5 5 7 4 4 6 3 5 7 9 8 7 8 8 13 18 16 17 16 16 16 16 16 16 16 16 16 16 16 15 15 15 14 14 15 15 15 15 14 14 13 11 12 12 12 11 12 12
7 7 5 5 7 7 8 6 6 4 4 5 6 7 3 5 3 2 5 5 5 6 8 7 6 5 4 5 4 5 6 7 6 5 4 3 3 7 7 8 8 9 6 4 3 3 7 8 7 7 7 6 10 17 17 17 16 16 16 16 17 17 17 17 17 16 16 16 15 15 15 16 16 16 15 14 14 13 12 13 13 12 11 11 11
6 5 5 5 6 8 8 7 5 5 4 4 5 4 4 5 4 4 4 7 5 7 8 7 6 6 5 4 5 6 8 7 7 8 8 5 5 4 4 8 10 8 8 8 8 8 4 5 7 7 7 6 6 7 9 9 11 15 16 17 17 18 17 17 17 17 16 16 16 15 15 16 16 16 15 14 13 13 12 13 13 13 12 12 12
5 7 6 7 7 8 8 7 6 5 4 4 3 4 4 6 4 5 6 6 6 7 7 6 6 4 3 3 5 2 1 3 4 7 8 8 8 8 6 8 10 10 9 10 9 7 5 7 7 6 5 5 4 6 7 8 8 13 16 17 17 17 18 18 18 17 17 17 15 14 15 16 16 15 14 13 13 13 13 13 13 13 13 13 12
6 8 7 6 7 8 9 8 6 5 5 4 4 7 5 5 7 7 6 7 7 7 8 6 5 5 4 4 3 5 4 6 7 7 7 6 6 8 8 8 8 7 4 6 13 9 7 7 5 5 4 4 4 4 6 4 10 15 16 16 16 16 16 17 17 17 17 16 15 14 14 15 14 13 13 13 13 13 13 13 13 12 13 13 13
8 9 9 7 7 8 8 8 8 5 7 6 5 8 9 7 7 6 5 7 8 6 6 7 8 4 4 2 3 3 2 3 4 3 5 7 7 7 6 4 8 7 4 4 3 7 6 9 6 5 4 4 3 3 2 1 0 2 7 13 15 15 15 16 16 16 16 16 14 13 13 13 13 13 13 13 13 14 14 13 13 13 13 12 12
8 8 9 8 8 9 8 9 9 8 6 7 7 8 8 8 7 7 8 8 7 6 7 6 7 3 7 6 4 3 1 3 3 1 3 6 7 6 2 3 1 6 5 5 7 5 9 11 9 8 5 4 4 3 3 2 1 2 0 2 10 12 13 13 13 13 14 14 12 12 11 11 12 13 12 13 13 13 13 13 13 13 12 12 12
9 9 9 8 8 7 8 8 9 8 7 6 7 9 9 10 8 5 6 7 5 5 7 8 6 5 8 9 8 7 7 5 4 4 3 3 4 4 4 3 5 7 5 3 6 6 7 6 10 9 6 5 3 2 4 3 1 4 6 5 3 5 7 7 9 10 11 11 10 10 10 10 10 11 11 12 12 12 12 12 12 12 11 11 12
8 9 10 10 9 9 7 7 8 10 9 8 8 9 7 9 7 8 6 6 5 6 7 7 7 6 6 6 7 8 8 8 7 6 4 2 2 2 6 8 5 2 4 3 2 4 4 2 8 6 8 6 4 4 3 3 4 2 2 2 3 3 3 3 4 6 8 9 8 9 9 10 10 10 10 10 10 11 11 11 11 11 11 10 11
3 3 4 7 8 9 8 8 9 8 8 10 9 10 10 7 6 4 6 5 5 7 6 6 7 8 4 4 6 5 5 6 7 6 5 4 4 4 3 3 4 4 2 3 3 3 4 10 12 8 5 4 3 4 2 1 1 2 2 5 5 4 4 3 4 5 7 7 8 9 9 9 9 9 9 9 9 9 10 10 11 11 10 9 9
4 5 6 6 6 8 9 10 9 10 10 11 11 9 6 9 7 6 5 6 5 7 6 6 6 7 8 5 3 4 5 5 5 5 6 5 6 4 4 4 3 1 3 2 2 9 15 10 8 7 5 6 3 1 3 3 1 2 4 7 6 5 4 2 2 3 4 6 6 6 7 6 6 6 6 5 6 6 6 7 8 8 8 8 8
6 6 6 7 8 9 11 11 10 9 9 11 11 10 10 9 7 9 7 7 7 7 7 7 6 6 9 7 5 5 4 5 4 5 5 3 4 6 4 4 5 2 0 4 7 12 7 8 8 5 3 3 2 1 1 1 4 4 9 7 6 5 4 1 2 3 5 6 7 7 7 7 6 6 6 7 6 6 5 6 6 6 7 8 7
6 5 6 7 8 8 10 9 8 9 9 10 11 11 10 8 8 7 7 8 8 7 6 7 9 7 8 8 7 7 7 7 7 6 5 4 5 3 3 2 3 3 1 4 13 6 9 8 7 8 6 4 3 2 1 2 1 9 6 5 5 4 3 2 1 4 5 6 6 6 6 6 6 6 6 7 7 7 6 6 6 7 7 8 8
8 8 9 10 8 10 10 9 9 10 10 9 10 11 9 9 8 8 10 9 9 8 7 9 9 8 7 7 8 8 7 7 6 6 6 5 4 2 3 3 4 1 6 9 4 7 6 6 5 6 7 6 4 3 3 2 1 4 4 5 5 5 2 1 2 4 5 5 6 6 7 7 8 8 8 8 8 8 8 7 7 7 7 7 7
11 11 9 10 10 10 11 8 6 6 6 7 9 9 9 9 8 7 9 6 7 8 8 10 9 10 7 7 7 7 7 6 6 6 6 5 3 3 3 1 1 3 2 2 3 1 4 3 2 2 4 5 3 2 3 3 4 5 6 5 3 4 5 3 2 3 3 4 4 5 6 6 7 7 8 8 8 8 8 7 6 5 5 6 7
11 10 9 10 12 11 10 9 7 9 9 8 9 10 8 7 7 8 8 6 5 7 9 11 11 11 10 7 7 7 7 4 7 2 4 5 6 3 1 2 1 1 3 1 3 3 2 2 2 3 4 5 5 4 4 4 2 3 4 4 2 5 5 3 3 3 2 2 2 3 4 5 5 6 6 7 7 7 7 6 6 5 6 7 7
9 10 10 10 12 10 9 9 9 10 9 9 10 10 9 9 8 8 8 8 6 9 8 10 11 11 10 7 7 8 7 6 4 1 2 1 6 3 2 4 4 1 2 3 1 1 4 2 1 2 4 2 4 3 4 5 3 6 3 0 2 3 4 4 5 4 2 1 2 3 4 5 5 5 6 5 6 6 7 7 7 7 7 9 9
10 9 12 11 11 11 9 10 10 11 11 11 12 11 8 8 9 7 9 9 7 6 7 7 9 11 9 11 8 7 5 3 2 2 3 3 2 0 2 3 5 4 2 2 3 3 3 2 3 1 2 2 2 3 4 3 3 3 4 3 3 4 6 8 8 5 3 2 2 3 4 4 4 4 4 4 4 4 5 6 7 8 9 10 11
13 13 11 14 11 11 11 10 11 12 13 12 12 12 10 9 10 7 7 7 7 6 7 8 9 7 8 8 7 7 7 5 3 2 1 2 2 1 5 5 5 6 4 4 2 1 3 4 3 2 1 1 2 2 3 2 0 3 2 3 4 4 10 10 8 6 4 4 3 2 2 3 3 3 3 4 4 5 6 7 8 9 11 12 12
13 12 12 13 14 12 11 13 11 11 12 13 12 11 10 9 10 9 8 8 7 6 6 7 8 8 7 8 7 6 6 4 4 2 2 4 2 3 3 4 3 5 6 4 3 1 2 3 2 2 1 0 2 1 2 2 1 4 0 4 4 6 11 8 9 6 6 4 4 2 2 4 4 4 5 6 7 8 9 10 11 12 12 12 12
14 15 15 16 15 15 15 15 15 13 13 13 13 11 10 10 9 10 9 8 8 8 8 7 8 7 6 7 6 4 4 3 4 4 2 4 5 5 4 5 5 4 4 4 4 3 2 2 3 2 1 2 2 1 2 1 4 4 0 1 6 9 7 5 8 8 6 6 4 3 3 6 6 7 8 10 11 11 11 11 12 12 12 12 12
13 12 12 16 15 15 16 14 15 13 11 12 12 11 10 10 10 9 8 8 9 9 8 8 8 8 6 6 5 4 3 4 4 3 4 7 5 4 5 5 5 3 4 3 3 2 0 2 2 1 2 4 3 2 2 2 1 2 2 2 2 1 3 6 5 7 7 6 6 5 6 8 9 9 9 10 11 11 12 12 12 12 12 13 13
14 16 15 16 16 16 16 15 14 14 12 11 11 10 10 10 11 11 10 8 7 8 7 7 7 6 5 4 5 5 3 3 3 6 5 5 5 4 4 5 5 4 4 3 3 2 2 2 2 2 1 3 1 2 2 2 2 2 2 0 2 3 3 5 5 5 7 7 7 8 9 9 8 9 9 10 11 11 12 12 12 13 12 13 13
13 13 16 16 15 14 14 13 13 14 13 12 11 10 10 11 12 12 12 11 9 8 8 8 8 6 6 4 4 4 3 4 4 3 6 7 4 6 5 3 5 5 4 2 3 4 3 1 2 1 1 2 2 2 1 4 4 3 2 3 2 3 3 4 6 4 7 8 8 9 11 8 9 9 10 10 11 11 12 12 12 12 12 12 12
13 13 15 14 11 13 14 13 13 12 13 13 12 12 10 11 12 13 11 10 9 9 9 9 8 7 7 6 5 3 2 3 4 3 2 8 7 6 6 5 4 5 4 4 2 1 2 2 1 2 1 3 2 3 2 4 4 4 1 1 3 1 1 2 7 6 6 9 9 12 11 10 10 9 10 11 12 13 13 12 12 11 10 10 11
12 9 5 4 9 13 13 14 14 13 13 14 14 13 12 10 11 11 10 8 6 4 7 3 2 4 5 5 3 5 1 4 4 4 2 4 5 5 5 4 5 4 3 3 4 3 3 3 2 1 3 3 2 2 2 1 2 2 3 2 1 2 2 2 7 6 9 9 10 12 12 11 11 11 11 11 12 11 11 12 12 11 11 11 11
8 8 10 9 10 15 14 14 14 14 13 13 14 13 13 13 12 11 9 7 6 7 6 6 5 2 4 5 4 7 6 6 5 6 5 4 4 5 6 6 5 5 5 4 4 4 3 3 2 3 3 3 2 2 1 2 1 1 1 1 1 2 2 3 6 5 6 5 5 5 8 9 10 11 11 11 12 12 11 11 10 10 10 11 11
11 8 8 11 11 13 14 12 12 12 13 11 11 11 11 11 9 10 8 8 8 5 5 5 7 6 6 5 4 7 8 7 5 5 6 6 5 4 4 5 5 5 5 4 4 4 4 4 4 3 2 2 2 3 2 1 3 3 1 1 1 1 2 1 1 2 3 5 6 10 9 9 10 8 9 11 12 12 11 10 10 11 11 10 10
11 8 6 7 9 9 11 10 9 6 5 6 8 10 10 9 8 7 8 10 7 7 8 8 8 8 6 4 5 5 8 8 7 6 6 7 5 5 4 5 5 5 5 5 5 4 4 4 4 4 5 3 4 3 2 2 3 2 0 1 0 1 1 1 1 2 2 1 5 4 7 10 9 9 8 10 11 12 12 11 11 11 11 9 9
8 4 2 4 8 8 10 6 7 7 7 6 5 7 8 7 7 6 9 9 9 8 9 8 6 4 5 7 7 6 7 11 12 10 9 8 6 6 5 4 5 5 5 5 5 5 4 4 4 4 4 5 4 5 4 3 4 3 2 0 0 1 0 1 2 3 2 1 0 6 6 7 7 6 6 6 6 9 10 11 9 11 11 9 8
6 8 10 9 9 10 9 8 7 6 4 4 11 13 9 7 6 6 7 8 9 9 9 8 7 8 8 8 6 10 12 14 13 12 12 11 10 7 6 6 6 6 6 6 5 5 5 5 5 5 6 6 5 5 4 3 3 3 3 3 2 0 0 1 4 3 4 3 3 2 4 8 8 8 7 7 7 8 6 5 5 6 8 8 9
8 8 8 8 8 8 9 10 9 8 8 9 19 17 14 13 8 8 9 8 9 9 9 10 9 9 9 7 2 6 8 9 10 13 12 11 12 10 12 11 9 7 6 6 5 5 5 5 5 5 5 5 5 4 3 2 2 2 2 2 0 1 0 0 1 2 3 3 2 2 2 2 3 8 8 7 8 6 5 5 9 11 9 8 8
9 7 9 9 8 9 9 7 9 9 9 17 23 17 17 16 13 9 9 9 9 9 9 9 8 7 8 6 6 8 9 8 8 9 11 12 12 10 10 9 10 8 6 5 6 6 6 6 3 2 3 5 5 4 4 3 3 3 1 1 2 1 1 0 1 2 1 1 0 2 4 3 3 3 5 7 7 6 7 10 11 9 8 8 7
9 9 10 10 10 10 11 12 12 11 11 16 18 18 18 18 17 12 9 9 9 9 9 9 9 8 7 8 7 8 8 16 10 8 7 7 7 10 10 9 10 9 7 7 3 1 3 4 3 3 2 4 5 3 2 3 2 2 1 0 3 2 1 0 2 3 2 0 1 2 2 5 4 4 2 8 6 6 7 9 10 8 7 7 7
9 7 8 11 11 11 11 11 12 12 12 13 16 18 18 18 17 13 9 9 8 10 10 10 9 11 10 9 8 8 8 9 8 9 8 8 9 9 8 5 5 7 6 3 3 4 6 4 7 6 4 5 6 4 4 2 2 2 1 1 2 1 1 2 1 1 3 2 3 0 2 3 3 4 6 5 7 6 6 8 10 9 8 7 7
7 9 10 10 11 12 11 10 10 11 10 15 15 18 19 20 20 16 10 10 9 10 10 9 9 11 11 11 9 8 8 9 9 11 11 11 11 9 8 6 6 6 5 5 4 3 3 5 7 8 7 7 7 5 5 5 5 3 3 1 1 1 0 0 2 5 5 4 3 2 0 3 4 6 5 3 6 4 5 7 10 9 8 8 7
7 7 9 10 10 11 11 10 11 12 10 15 16 17 18 19 19 12 10 9 10 9 9 9 9 9 11 11 8 9 8 9 12 16 13 11 10 9 8 7 7 6 6 5 7 9 8 8 7 7 7 7 8 6 5 4 4 4 3 2 2 2 1 3 4 6 5 5 6 3 1 2 4 5 4 5 4 5 4 4 6 8 8 7 6
8 9 9 9 8 9 12 11 11 10 9 12 18 18 18 19 14 10 8 9 9 10 9 9 9 9 7 9 11 9 9 8 11 15 17 14 10 10 11 9 7 7 6 5 10 15 16 17 17 15 13 12 11 10 10 8 5 3 2 1 2 1 3 2 1 6 5 4 5 5 1 1 4 3 3 3 4 3 3 6 4 7 8 6 6
8 10 8 6 7 9 10 10 11 10 10 9 14 16 18 19 16 12 9 9 8 8 6 4 5 6 9 16 13 9 9 10 15 15 16 13 10 12 11 11 10 8 7 7 6 7 13 14 14 14 13 12 11 10 10 9 9 7 5 5 4 3 0 2 2 5 4 5 5 7 1 3 3 4 3 3 3 2 5 4 4 3 5 5 6
9 7 6 6 6 7 8 9 11 13 10 10 13 15 15 17 15 9 7 8 9 5 5 6 6 7 5 7 9 11 12 11 16 13 17 14 11 11 11 11 10 9 8 8 8 7 7 7 6 7 7 8 6 4 6 12 13 10 6 5 5 5 4 3 3 5 4 4 5 7 2 3 4 5 4 3 2 2 4 5 3 2 4 5 6
Wind_Direction
255 220 192 217 71 289 252 276 307 291 280 300 15 292 259 285 316 273 271 244 253 147 183 172 164 192 145 206 253 46 47 322 288 139 134 146 155 172 172 174 179 183 186 189 190 195 193 197 202 202 202 206 201 203 209 207 212 219 205 208 217 221 226 227 227 229 234 236 242 242 244 245 246 246 246 247 249 250 250 250 250 252 252 252 251
261 235 241 240 270 292 300 269 261 302 270 245 187 253 308 261 274 259 270 315 325 203 173 167 180 167 161 175 137 32 6 263 298 60 177 146 151 171 180 172 180 184 189 190 195 198 197 204 207 209 212 215 210 211 219 211 212 222 226 215 218 223 227 227 228 231 234 234 239 242 241 244 249 251 251 251 253 253 253 255 258 258 260 256 257
273 285 262 228 222 203 214 219 223 236 244 282 179 243 281 351 299 315 335 289 302 327 356 62 177 184 171 131 153 170 216 205 280 324 102 182 142 169 185 177 178 185 190 194 196 200 201 204 209 214 215 218 214 213 220 230 220 221 228 229 224 224 227 229 232 233 239 240 247 243 241 247 253 255 258 257 257 260 259 260 262 264 263 264 260
279 287 287 305 302 297 278 239 213 214 202 291 289 304 330 308 300 305 285 306 277 262 273 255 232 187 155 155 167 184 182 237 213 181 183 234 154 169 173 182 181 184 189 195 199 200 203 204 207 212 216 216 215 214 217 225 228 228 234 230 229 229 229 227 224 230 237 240 243 248 247 248 252 254 254 257 259 259 260 261 261 261 262 263 263
245 247 259 273 276 273 261 258 272 294 250 253 304 8 292 264 260 239 256 249 262 258 235 222 245 167 187 150 132 156 186 195 176 308 248 204 179 171 169 175 180 189 190 194 198 201 204 206 207 211 214 218 216 216 217 219 222 229 230 230 230 232 233 235 238 231 231 235 239 242 243 244 244 247 249 250 254 257 259 261 264 264 263 261 259
257 272 252 239 236 239 248 272 277 277 315 323 305 279 269 280 262 285 266 260 257 260 237 242 249 179 191 157 159 184 171 174 201 203 208 210 201 170 171 166 176 181 191 199 199 200 204 208 209 211 214 216 218 218 219 220 222 225 227 230 233 232 233 235 237 237 234 233 234 237 239 239 241 245 249 251 253 253 253 250 248 247 248 250 254
231 253 266 253 254 266 259 236 227 225 221 150 207 237 236 238 247 246 239 231 271 256 265 266 259 251 190 161 179 189 185 177 212 203 222 194 132 214 171 170 171 177 182 184 205 204 205 206 211 214 215 216 219 219 219 221 223 224 225 229 231 233 234 236 236 236 237 239 241 239 239 241 244 246 248 249 250 250 249 248 249 249 249 251 252
226 234 254 264 250 243 251 251 235 233 140 240 268 291 284 258 256 263 267 264 273 283 299 276 254 271 279 159 144 168 190 188 196 199 232 145 188 203 174 172 172 182 179 178 186 201 205 207 208 212 214 216 217 220 219 221 222 223 225 225 226 229 234 236 237 236 238 240 240 240 241 243 245 247 247 246 246 246 247 249 250 249 249 251 253
208 234 250 251 264 267 255 257 237 183 180 218 216 215 242 278 74 298 286 287 275 271 262 268 278 242 232 237 175 173 181 201 171 186 220 172 158 193 188 198 173 182 172 177 182 188 199 204 207 209 213 214 215 216 219 219 221 222 223 224 224 226 228 233 237 237 235 237 239 241 242 243 243 244 245 248 250 253 254 255 254 253 253 252 253
197 223 235 254 263 267 267 263 265 220 177 206 240 250 249 270 284 233 245 255 252 268 269 271 273 262 253 232 201 181 192 180 208 189 188 176 168 177 172 208 205 201 182 172 181 176 182 200 205 208 212 214 214 215 216 219 220 221 222 224 224 226 228 231 235 238 237 236 239 242 245 247 248 248 248 249 251 253 254 256 257 258 258 257 257
188 215 252 251 255 270 276 265 273 269 159 210 234 244 278 267 251 247 216 234 259 279 287 303 279 284 282 277 283 216 223 234 254 228 182 196 176 178 193 197 141 357 283 204 156 161 174 179 191 201 211 215 215 216 217 218 220 222 223 226 226 228 230 233 237 239 239 239 241 243 244 244 246 248 250 250 250 249 250 251 254 255 256 258 259
275 235 229 246 254 258 261 266 255 267 280 245 245 236 214 240 271 262 295 289 242 231 243 248 258 264 271 297 298 301 279 231 223 220 194 225 179 164 185 166 172 187 227 218 188 186 175 170 181 192 205 207 211 216 217 217 219 220 223 225 225 226 229 231 234 236 237 237 238 240 241 242 244 245 246 248 251 255 255 253 253 254 255 256 257
260 235 221 236 252 265 270 251 258 246 227 236 250 255 243 190 240 139 248 256 265 264 254 246 247 250 255 243 240 229 236 230 251 278 262 218 226 179 185 163 168 198 194 213 232 246 168 161 171 187 202 201 202 210 212 214 215 217 219 222 223 224 226 228 232 235 236 236 236 238 239 240 242 244 245 245 247 249 251 253 253 253 252 252 252
248 233 219 223 244 252 260 270 248 240 235 224 236 237 245 274 268 267 257 257 254 256 256 247 221 246 245 230 236 230 232 232 227 220 232 218 216 226 170 137 185 192 185 166 209 211 179 169 173 190 194 195 186 193 207 214 218 218 218 219 221 222 223 226 230 234 237 239 239 239 239 239 241 243 245 245 245 246 247 250 252 252 252 250 249
251 258 224 219 227 247 254 256 254 247 243 236 248 261 260 249 254 252 267 268 261 253 251 246 277 242 238 251 257 310 351 316 245 240 238 220 204 207 197 174 189 198 188 173 202 193 190 185 189 195 183 192 178 172 188 197 205 210 215 218 220 222 221 222 225 230 234 239 240 238 238 242 244 245 245 246 247 247 247 248 249 249 249 249 248
229 244 239 223 230 242 251 252 249 225 240 236 227 244 238 238 250 245 235 255 257 254 247 219 217 240 248 239 225 199 238 222 236 225 234 265 257 222 198 189 193 201 207 162 184 189 177 177 175 195 190 177 194 181 160 178 201 206 209 214 215 220 223 224 224 227 230 236 239 239 241 247 248 250 251 250 249 249 248 246 247 249 251 253 252
222 226 237 225 222 235 246 255 256 239 215 228 231 240 242 233 227 238 240 247 253 263 278 267 217 209 283 294 272 267 251 278 276 232 210 213 224 241 252 223 187 175 157 201 231 158 154 155 185 197 190 177 161 114 98 124 139 167 210 217 217 217 221 224 228 232 237 243 245 244 244 247 251 251 251 251 251 248 246 246 248 252 255 251 252
225 230 232 232 226 223 228 241 255 258 227 221 234 230 237 246 244 227 236 240 255 266 270 275 269 220 194 225 277 285 294 297 334 319 349 321 319 301 243 228 217 140 196 187 184 159 157 163 184 192 170 150 144 144 148 118 92 189 136 207 209 215 218 222 229 236 243 250 252 253 252 248 252 254 251 249 252 255 252 251 252 253 247 252 254
223 228 226 230 244 230 215 222 238 256 251 220 234 241 241 240 238 225 231 244 234 254 258 267 278 249 234 228 222 221 246 266 231 256 259 208 245 273 277 236 202 201 210 205 159 157 175 130 160 154 168 146 133 117 113 140 168 24 10 352 202 204 205 210 227 238 249 255 257 259 261 261 258 256 257 256 258 260 263 261 261 261 252 257 266
227 225 217 218 227 235 227 225 225 234 255 244 229 234 242 244 224 218 228 231 228 237 247 252 259 271 261 262 244 229 230 235 247 264 273 295 239 253 291 306 310 253 170 204 218 129 128 156 128 100 58 39 54 53 30 45 62 38 355 85 81 126 155 208 245 256 257 260 262 262 261 262 263 266 270 273 274 275 275 274 272 274 281 281 285
228 254 243 237 229 230 229 220 213 220 241 254 243 229 225 246 250 190 217 229 230 239 237 249 266 269 257 227 260 272 252 242 255 247 251 261 269 252 228 235 252 272 257 189 185 157 84 62 67 67 82 88 57 85 110 348 84 164 149 136 155 140 159 188 233 253 264 266 266 268 270 276 280 279 277 280 284 286 287 289 292 296 298 300 304
227 233 228 233 254 254 241 236 222 220 228 243 246 243 205 228 236 239 234 242 235 236 239 238 242 265 275 272 211 250 282 286 260 251 252 244 254 254 267 262 243 226 272 289 342 55 77 107 101 106 128 132 141 194 136 180 155 195 159 154 155 150 150 161 255 280 281 284 289 298 309 322 329 330 322 312 306 304 304 310 317 320 318 313 311
223 217 219 225 235 242 240 230 229 224 221 236 251 246 234 216 216 225 226 230 234 235 242 243 240 235 255 271 271 224 219 258 266 265 265 251 253 266 266 266 278 319 354 56 48 76 88 88 114 111 74 68 27 16 327 92 241 194 146 165 160 146 125 123 298 313 312 314 323 331 336 336 336 333 331 329 327 330 333 333 330 327 327 327 326
202 211 215 220 227 238 239 235 233 237 227 226 241 241 240 230 219 207 217 226 231 234 239 250 243 241 246 255 257 261 247 227 238 238 239 255 268 276 261 279 312 311 16 79 61 71 81 89 106 134 143 148 151 143 297 321 93 140 158 162 155 141 114 32 315 308 312 320 328 335 335 331 324 321 322 324 325 327 330 332 338 341 341 340 337
210 209 215 218 222 226 226 223 221 223 228 226 224 234 242 239 230 197 213 212 212 215 222 235 247 246 239 236 250 255 250 257 258 261 254 230 174 218 287 8 292 226 4 15 48 87 92 106 128 129 146 155 156 167 170 195 220 214 229 156 174 157 137 221 274 296 315 325 335 340 340 335 331 331 332 329 328 330 331 333 339 344 343 338 342
223 222 212 207 218 220 220 216 224 246 259 243 234 228 229 241 244 234 230 218 210 211 220 232 238 246 244 249 250 251 255 259 259 246 252 257 241 234 107 132 67 65 79 101 307 39 61 82 79 86 111 136 153 186 181 213 199 180 220 163 170 157 176 214 250 306 305 324 343 343 345 342 337 337 334 333 331 329 332 350 7 6 353 357 8
226 225 218 209 211 216 206 211 208 228 244 259 259 238 228 229 239 247 232 219 192 215 221 230 235 235 237 241 249 241 248 229 252 353 354 342 309 96 148 123 104 68 145 114 46 25 149 88 136 130 138 158 176 184 182 194 178 149 171 149 170 189 185 211 238 243 283 308 332 356 354 344 336 330 329 330 333 334 350 8 18 20 23 25 38
225 223 217 219 225 206 199 208 212 217 224 241 251 244 230 222 225 233 242 232 213 220 224 226 233 239 240 232 232 244 252 251 243 209 136 158 245 120 127 138 129 118 21 133 159 296 250 134 84 219 131 146 163 153 178 174 172 191 158 152 170 176 189 203 215 220 221 234 18 23 15 4 352 343 342 340 347 355 2 10 28 43 44 50 59
234 221 223 220 225 219 207 211 213 214 222 229 240 240 229 230 226 222 228 230 227 213 223 219 229 233 231 231 227 229 244 265 14 305 169 186 308 150 179 118 135 144 146 144 160 173 264 206 133 142 85 159 157 150 149 148 180 196 156 192 187 178 183 200 211 202 166 100 56 46 42 30 15 5 3 8 13 16 25 34 43 50 55 59 63
231 231 224 222 221 221 215 212 210 210 217 223 231 236 221 221 227 220 218 225 234 224 226 227 229 235 244 239 226 230 221 188 214 195 119 42 324 39 96 118 146 152 155 161 170 184 160 93 69 123 211 250 201 168 136 111 324 288 208 197 192 210 171 194 197 174 145 103 94 72 75 68 32 25 23 28 36 44 52 59 63 64 66 65 65
228 229 221 226 221 214 215 217 211 211 211 218 221 228 221 218 221 222 216 212 225 236 234 230 232 232 231 242 243 234 233 192 152 191 126 109 89 113 97 97 120 133 142 143 141 239 25 125 134 73 76 264 16 71 130 142 182 264 52 155 162 187 171 189 179 161 138 144 133 104 83 59 50 52 58 60 67 70 72 73 73 73 72 71 70
227 225 226 228 222 215 216 216 219 217 214 212 215 218 218 218 214 219 218 207 214 224 231 227 233 234 240 239 235 232 232 145 166 157 182 138 152 126 130 123 117 118 124 132 162 169 38 76 106 151 159 341 262 177 121 186 164 243 117 295 150 169 180 177 170 158 159 149 130 111 77 63 70 74 76 78 75 73 72 71 72 73 74 74 73
218 223 226 230 227 222 219 214 215 215 213 213 212 210 210 209 209 218 217 206 206 211 218 228 231 232 235 236 230 229 246 196 159 189 135 123 130 122 128 130 113 111 125 121 150 134 274 102 107 130 179 202 195 212 142 147 194 193 227 211 156 227 188 147 155 160 158 147 135 117 88 80 79 81 80 79 76 74 73 73 73 73 72 71 70
216 219 226 229 230 228 223 217 213 213 208 215 205 204 206 203 209 214 215 207 212 211 204 217 222 233 241 235 232 234 203 252 228 157 145 147 156 137 127 131 138 138 161 144 151 154 183 154 143 182 256 243 150 209 159 164 200 231 196 130 157 195 241 135 151 160 160 147 138 120 97 91 88 88 82 80 80 78 76 76 76 75 75 74 73
219 221 225 226 228 228 227 221 214 212 210 209 210 209 200 203 210 213 215 205 206 200 200 207 213 222 232 234 238 216 208 214 231 225 169 126 147 137 139 136 135 149 159 156 149 188 194 132 212 145 129 236 195 191 185 195 219 186 208 176 170 216 212 150 143 144 158 150 153 117 105 103 102 101 97 93 92 90 87 84 83 82 82 82 79
223 221 230 236 237 239 232 223 220 214 209 208 207 209 204 196 203 209 208 209 209 203 203 207 211 212 221 214 201 184 230 222 208 195 205 137 147 152 147 152 148 148 145 143 156 153 138 151 220 165 164 213 189 205 200 243 211 145 124 199 221 233 232 184 137 133 159 161 149 123 120 117 111 105 100 97 93 90 88 88 89 87 85 81 76
242 229 249 287 260 249 233 222 218 219 216 210 206 204 206 193 198 203 203 198 205 141 174 146 234 237 226 219 173 136 90 252 193 125 84 135 149 142 139 149 145 136 129 131 131 139 148 185 169 145 210 211 194 218 230 171 59 144 171 182 62 255 47 20 117 137 150 153 133 124 123 121 116 111 107 102 98 94 91 89 86 85 82 78 75
251 213 213 221 230 243 244 232 224 221 220 212 203 203 204 200 196 197 194 187 134 155 173 182 189 225 253 225 200 178 187 216 205 148 164 163 148 144 151 143 137 132 133 145 147 133 172 167 164 205 181 214 185 198 249 143 168 150 122 132 313 143 138 58 121 151 155 155 140 122 121 118 118 118 116 111 107 103 98 94 90 88 85 83 80
250 235 204 211 226 240 236 236 230 223 222 211 208 204 204 200 188 177 168 137 150 151 160 156 173 201 226 232 195 177 178 189 182 166 154 139 146 147 142 138 136 141 138 146 165 165 166 165 179 226 217 247 220 169 162 179 91 75 40 83 20 352 69 98 69 80 111 154 147 146 151 141 136 125 124 120 115 111 105 100 97 92 88 86 85
255 243 234 239 242 248 269 265 266 278 283 255 226 215 214 195 181 170 146 165 149 157 172 191 194 201 202 226 217 198 178 176 169 162 153 146 150 155 151 144 142 148 155 154 154 170 168 178 192 192 208 183 212 195 145 112 89 20 256 119 173 73 17 283 53 73 47 41 140 149 124 116 114 117 130 125 124 119 113 104 103 101 100 99 94
237 242 241 251 274 295 295 334 0 340 319 284 289 239 211 192 175 145 164 163 162 162 179 170 170 166 219 224 222 208 188 178 170 161 156 159 157 162 169 151 147 154 173 154 166 179 180 194 209 219 198 191 182 145 141 164 173 168 176 71 74 223 281 41 81 95 79 277 19 140 143 142 142 159 161 142 142 136 126 123 117 117 117 112 107
228 229 237 236 229 228 229 231 223 222 217 244 248 232 186 187 168 155 158 166 166 175 178 169 156 163 211 231 214 216 205 184 169 166 163 167 169 169 165 165 163 164 178 155 162 190 189 196 204 194 203 174 152 151 149 190 144 147 150 161 225 112 19 276 91 41 14 7 26 68 159 175 165 173 164 166 172 153 155 149 132 126 127 124 119
227 232 221 220 223 232 236 231 222 205 195 196 228 207 198 181 171 165 171 170 173 171 172 173 178 168 188 223 230 249 238 185 172 168 166 178 178 178 179 179 183 168 172 172 183 190 206 213 218 205 168 155 144 147 173 170 112 141 111 122 166 113 154 171 186 104 353 23 10 331 298 230 149 167 182 171 178 147 122 105 121 131 139 140 137
234 227 230 225 223 226 232 233 234 228 215 210 216 199 188 185 178 172 170 170 176 181 173 170 176 175 181 195 188 192 193 185 179 173 170 175 183 184 175 185 189 181 171 178 181 197 208 222 190 132 155 149 143 146 150 116 119 91 129 207 144 126 112 96 279 118 174 288 27 306 310 297 223 221 169 166 153 133 119 142 142 143 151 151 141
230 222 234 233 219 216 213 210 218 218 217 218 216 198 190 188 183 169 174 170 171 176 173 170 165 170 185 195 207 196 185 182 179 162 160 165 151 135 118 128 120 111 90 76 39 299 227 188 151 97 72 128 125 108 88 108 134 114 66 271 126 150 138 255 100 104 172 220 96 33 313 295 299 277 185 111 107 96 121 144 140 152 162 147 140
218 215 221 235 232 221 217 214 219 220 206 214 201 194 192 191 187 180 173 167 171 178 174 171 168 171 188 197 195 194 176 173 162 158 145 137 134 132 137 144 145 127 118 125 171 118 89 85 107 106 68 76 97 91 81 95 116 130 152 2 61 69 95 111 141 118 71 15 87 163 268 317 329 32 61 110 117 129 141 150 155 162 163 158 152
222 195 215 225 229 231 224 217 224 225 213 205 202 194 189 186 187 186 180 172 173 185 185 177 169 174 191 199 202 192 180 176 165 157 147 147 148 144 154 137 84 60 39 25 17 356 63 104 102 86 72 65 68 62 47 35 42 46 63 64 10 342 156 358 144 94 69 32 41 61 158 310 347 39 25 45 112 109 127 155 170 172 170 169 163
237 225 214 212 220 231 230 218 222 229 223 201 197 197 188 185 181 188 183 183 176 179 179 179 176 182 187 192 191 197 184 178 165 156 152 150 149 156 129 108 104 81 66 48 65 73 76 78 83 86 80 77 78 75 61 55 46 31 14 331 269 268 262 220 220 111 86 40 26 29 26 340 34 45 6 14 57 121 153 150 196 192 185 177 166
227 221 220 214 204 222 237 230 223 229 230 201 193 192 191 184 178 190 187 193 179 178 181 177 180 184 184 195 196 189 182 160 160 162 161 153 159 137 134 126 115 111 99 74 74 87 90 92 97 101 102 96 88 79 70 64 65 34 355 320 289 233 173 133 279 109 77 51 24 9 325 26 31 38 20 27 9 311 179 144 181 203 204 181 190
226 228 222 219 208 216 225 233 228 226 232 214 197 195 190 183 182 184 182 180 182 178 177 145 142 175 198 213 205 169 172 161 163 167 160 166 157 146 142 132 132 133 135 123 108 95 100 104 108 108 107 103 95 82 70 62 65 47 40 54 359 340 181 217 102 107 89 53 15 340 358 42 1 34 27 21 337 332 55 136 174 167 197 193 221
233 233 216 216 211 218 219 218 228 232 230 225 200 200 194 187 189 186 169 192 191 170 127 143 161 166 164 198 162 163 161 158 148 167 169 173 147 153 145 141 143 144 148 143 128 125 117 108 105 111 117 110 98 92 87 73 64 59 48 50 16 24 23 31 107 148 108 49 351 333 49 28 15 27 43 6 20 316 32 16 52 143 194 199 199